S51W-1 Weather Reports


time (UTC)temp
C
wind
direction
speed
KPH
gust
KPH
rain 1hr
cm
rain 24hr
cm
rain mn
cm
humidity
%
barometer
mb
20260906064406 18 167 8.0 16.1 0.00 0.00 0.00 68 1023.7
20260906063905 18 172 8.0 12.9 0.00 0.00 0.00 67 1023.7
20260906063405 18 170 6.4 14.5 0.00 0.00 0.00 69 1023.7
20260906062905 18 150 6.4 12.9 0.00 0.00 0.00 68 1023.7
20260906062405 18 150 6.4 12.9 0.00 0.00 0.00 68 1023.7
20260906061904 18 174 8.0 12.9 0.00 0.00 0.00 69 1023.7
20260906061404 18 181 6.4 14.5 0.00 0.00 0.00 69 1023.6
20260906060904 18 172 9.7 12.9 0.00 0.00 0.00 69 1023.6
20260906060403 18 175 6.4 12.9 0.00 0.00 0.00 71 1023.5
20260906055903 18 143 8.0 11.3 0.00 0.00 0.00 71 1023.4
20260906055403 18 156 6.4 12.9 0.00 0.00 0.00 71 1023.4
20260906054903 17 181 12.9 12.9 0.00 0.00 0.00 71 1023.3
20260906054402 18 156 6.4 14.5 0.00 0.00 0.00 72 1023.3
20260906053902 17 171 11.3 12.9 0.00 0.00 0.00 72 1023.2
20260906053402 17 165 8.0 16.1 0.00 0.00 0.00 72 1023.3
20260906052901 17 156 8.0 16.1 0.00 0.00 0.00 73 1023.0
20260906052401 18 178 8.0 14.5 0.00 0.00 0.00 72 1023.0
20260906051901 17 175 6.4 14.5 0.00 0.00 0.00 73 1023.0
20260906051401 17 165 6.4 12.9 0.00 0.00 0.00 73 1023.0
20260906050900 17 163 4.8 11.3 0.00 0.00 0.00 73 1022.9
20260906050400 18 167 4.8 16.1 0.00 0.00 0.00 73 1022.9
20260906045900 18 170 6.4 14.5 0.00 0.00 0.00 73 1022.9
20260906045359 17 184 8.0 14.5 0.00 0.00 0.00 73 1022.8
20260906044859 18 165 6.4 12.9 0.00 0.00 0.00 73 1022.8
20260906044359 18 170 6.4 14.5 0.00 0.00 0.00 73 1022.7
20260906043858 18 172 11.3 16.1 0.00 0.00 0.00 72 1022.7
20260906043358 18 161 8.0 16.1 0.00 0.00 0.00 72 1022.7
20260906042858 18 177 11.3 12.9 0.00 0.00 0.00 73 1022.6
20260906042358 18 149 8.0 14.5 0.00 0.00 0.00 73 1022.6
20260906041857 18 161 9.7 17.7 0.00 0.00 0.00 73 1022.6
20260906041357 18 170 12.9 17.7 0.00 0.00 0.00 72 1022.5
20260906040857 18 161 8.0 16.1 0.00 0.00 0.00 72 1022.5
20260906040356 18 151 9.7 17.7 0.00 0.00 0.00 73 1022.5
20260906035856 18 174 6.4 20.9 0.00 0.00 0.00 73 1022.4
20260906035356 18 178 11.3 14.5 0.00 0.00 0.00 72 1022.4
20260906034856 18 153 8.0 14.5 0.00 0.00 0.00 72 1022.3
20260906034355 18 167 6.4 16.1 0.00 0.00 0.00 72 1022.3
20260906033855 18 185 9.7 19.3 0.00 0.00 0.00 72 1022.2
20260906033355 18 158 9.7 14.5 0.00 0.00 0.00 72 1022.3
20260906032854 18 172 9.7 16.1 0.00 0.00 0.00 72 1022.2
20260906032354 18 181 8.0 16.1 0.00 0.00 0.00 72 1022.2
20260906031854 18 170 8.0 16.1 0.00 0.00 0.00 72 1022.2
20260906031354 18 184 12.9 14.5 0.00 0.00 0.00 72 1022.1
20260906030853 18 181 8.0 14.5 0.00 0.00 0.00 72 1022.1
20260906030353 18 156 6.4 16.1 0.00 0.00 0.00 71 1022.1
20260906025853 18 158 9.7 12.9 0.00 0.00 0.00 70 1022.0
20260906025352 18 189 6.4 16.1 0.00 0.00 0.00 70 1022.0
20260906024852 19 164 6.4 12.9 0.00 0.00 0.00 70 1022.0
20260906024352 19 164 6.4 14.5 0.00 0.00 0.00 69 1022.0
20260906023852 19 158 8.0 12.9 0.00 0.00 0.00 68 1022.0
20260906023351 19 164 6.4 16.1 0.00 0.00 0.00 67 1022.0
20260906022851 19 153 6.4 14.5 0.00 0.00 0.00 66 1021.9
20260906022351 19 172 6.4 11.3 0.00 0.00 0.00 66 1021.9
20260906021850 20 170 8.0 12.9 0.00 0.00 0.00 65 1021.7
20260906021350 20 184 8.0 12.9 0.00 0.00 0.00 65 1021.7
20260906020850 20 167 9.7 12.9 0.00 0.00 0.00 66 1021.7
20260906020350 19 154 9.7 11.3 0.00 0.00 0.00 66 1021.9
20260906015849 19 175 6.4 14.5 0.00 0.00 0.00 66 1021.9
20260906015349 19 178 9.7 12.9 0.00 0.00 0.00 67 1021.9
20260906014849 19 163 8.0 14.5 0.00 0.00 0.00 67 1021.9
20260906014348 19 149 8.0 11.3 0.00 0.00 0.00 67 1021.9
20260906013848 19 157 9.7 14.5 0.00 0.00 0.00 68 1021.9
20260906013348 19 174 6.4 14.5 0.00 0.00 0.00 68 1022.0
20260906012847 20 181 9.7 14.5 0.00 0.00 0.00 68 1021.9
20260906012347 19 181 9.7 12.9 0.00 0.00 0.00 68 1021.9
20260906011847 20 182 11.3 17.7 0.00 0.00 0.00 67 1021.9
20260906011347 20 171 6.4 14.5 0.00 0.00 0.00 66 1021.9
20260906010846 20 157 6.4 16.1 0.00 0.00 0.00 65 1021.9
20260906010346 20 167 6.4 14.5 0.00 0.00 0.00 65 1021.7
20260906005846 20 187 9.7 14.5 0.00 0.00 0.00 65 1021.7
20260906005345 20 147 6.4 14.5 0.00 0.00 0.00 66 1021.7
20260906004845 20 157 6.4 12.9 0.00 0.00 0.00 66 1021.6
20260906004345 20 168 8.0 16.1 0.00 0.00 0.00 65 1021.7
20260906003845 20 153 6.4 17.7 0.00 0.00 0.00 64 1021.6
20260906003344 20 182 8.0 12.9 0.00 0.00 0.00 64 1021.6
20260906002844 20 168 6.4 14.5 0.00 0.00 0.00 64 1021.6
20260906002344 20 174 6.4 12.9 0.00 0.00 0.00 64 1021.5
20260906001843 20 181 9.7 11.3 0.00 0.00 0.00 64 1021.5
20260906001343 20 167 6.4 12.9 0.00 0.00 0.00 64 1021.5
20260906000843 20 130 6.4 17.7 0.00 0.00 0.00 65 1021.6
20260906000342 20 165 4.8 14.5 0.00 0.00 0.00 66 1021.6
20260905235842 20 168 6.4 9.7 0.00 0.00 0.00 66 1021.5
20260905235342 20 142 8.0 14.5 0.00 0.00 0.00 65 1021.6
20260905234842 20 163 4.8 12.9 0.00 0.00 0.00 65 1021.5
20260905234341 20 170 9.7 11.3 0.00 0.00 0.00 65 1021.5
20260905233841 20 184 11.3 11.3 0.00 0.00 0.00 64 1021.4
20260905233341 20 170 8.0 12.9 0.00 0.00 0.00 64 1021.4
20260905232840 20 158 6.4 12.9 0.00 0.00 0.00 65 1021.4
20260905232340 20 167 4.8 12.9 0.00 0.00 0.00 64 1021.4
20260905231840 20 184 4.8 14.5 0.00 0.00 0.00 65 1021.4
20260905231340 20 165 6.4 12.9 0.00 0.00 0.00 65 1021.4
20260905230839 20 177 6.4 16.1 0.00 0.00 0.00 66 1021.4
20260905230339 20 172 8.0 14.5 0.00 0.00 0.00 66 1021.4
20260905225839 20 185 11.3 14.5 0.00 0.00 0.00 65 1021.4
20260905225338 20 188 11.3 14.5 0.00 0.00 0.00 65 1021.3
20260905224838 20 182 9.7 12.9 0.00 0.00 0.00 65 1021.3
20260905224338 20 165 6.4 16.1 0.00 0.00 0.00 65 1021.2
20260905223838 20 172 12.9 14.5 0.00 0.00 0.00 65 1021.1
20260905223337 20 171 6.4 14.5 0.00 0.00 0.00 64 1021.1
20260905222837 20 187 8.0 14.5 0.00 0.00 0.00 64 1021.1
20260905222337 20 175 8.0 14.5 0.00 0.00 0.00 64 1021.1
20260905221836 20 157 4.8 14.5 0.00 0.00 0.00 63 1021.1
20260905221336 21 187 11.3 14.5 0.00 0.00 0.00 63 1021.0
20260905220836 21 184 8.0 11.3 0.00 0.00 0.00 63 1021.1
20260905220336 21 167 6.4 11.3 0.00 0.00 0.00 62 1021.1
20260905215835 21 174 9.7 12.9 0.00 0.00 0.00 62 1021.1
20260905215335 21 163 6.4 14.5 0.00 0.00 0.00 62 1021.0
20260905214835 21 160 4.8 12.9 0.00 0.00 0.00 62 1021.0
20260905214334 21 167 6.4 11.3 0.00 0.00 0.00 62 1021.1
20260905213834 21 157 8.0 11.3 0.00 0.00 0.00 62 1021.1
20260905213334 21 177 8.0 12.9 0.00 0.00 0.00 62 1021.0
20260905212833 21 157 4.8 16.1 0.00 0.00 0.00 62 1021.0
20260905212333 21 163 8.0 16.1 0.00 0.00 0.00 63 1021.1
20260905211833 21 168 6.4 12.9 0.00 0.00 0.00 63 1021.2
20260905211333 21 163 6.4 17.7 0.00 0.00 0.00 62 1021.0
20260905210832 21 184 9.7 14.5 0.00 0.00 0.00 61 1021.0
20260905210332 21 172 8.0 16.1 0.00 0.00 0.00 60 1020.9
20260905205832 21 168 8.0 14.5 0.00 0.00 0.00 61 1020.9
20260905205331 21 165 6.4 16.1 0.00 0.00 0.00 62 1021.0
20260905204831 21 167 8.0 11.3 0.00 0.00 0.00 64 1021.0
20260905204331 21 163 4.8 14.5 0.00 0.00 0.00 63 1021.0
20260905203831 21 189 6.4 12.9 0.00 0.00 0.00 63 1020.9
20260905203330 21 178 6.4 12.9 0.00 0.00 0.00 64 1020.9
20260905202830 21 177 6.4 12.9 0.00 0.00 0.00 64 1020.9
20260905202330 21 180 11.3 16.1 0.00 0.00 0.00 65 1020.8
20260905201829 21 174 9.7 12.9 0.00 0.00 0.00 65 1020.9
20260905201329 20 154 8.0 14.5 0.00 0.00 0.00 66 1020.9
20260905200829 20 175 8.0 12.9 0.00 0.00 0.00 68 1020.8
20260905200329 21 184 9.7 14.5 0.00 0.00 0.00 66 1020.9
20260905195828 21 153 8.0 12.9 0.00 0.00 0.00 66 1020.8
20260905195328 20 163 6.4 12.9 0.00 0.00 0.00 67 1020.7
20260905194828 20 161 8.0 14.5 0.00 0.00 0.00 68 1020.6
20260905194327 20 164 6.4 14.5 0.00 0.00 0.00 68 1020.6
20260905193827 21 168 11.3 12.9 0.00 0.00 0.00 68 1020.4
20260905193327 21 181 9.7 16.1 0.00 0.00 0.00 69 1020.4
20260905192827 21 185 4.8 12.9 0.00 0.00 0.00 68 1020.3
20260905192326 21 181 8.0 12.9 0.00 0.00 0.00 67 1020.2
20260905191826 21 180 4.8 11.3 0.00 0.00 0.00 69 1020.1
20260905191326 20 177 9.7 11.3 0.00 0.00 0.00 71 1020.1
20260905190825 21 167 6.4 12.9 0.00 0.00 0.00 72 1020.1
20260905190325 21 170 6.4 12.9 0.00 0.00 0.00 71 1020.1
20260905185825 21 157 11.3 11.3 0.00 0.00 0.00 71 1020.2
20260905185325 21 157 6.4 12.9 0.00 0.00 0.00 70 1020.2
20260905184824 21 184 9.7 12.9 0.00 0.00 0.00 69 1020.0
20260905184324 21 160 4.8 14.5 0.00 0.00 0.00 69 1019.9
20260905183824 21 177 9.7 11.3 0.00 0.00 0.00 69 1019.8
20260905183323 21 161 6.4 11.3 0.00 0.00 0.00 68 1019.8
20260905182823 21 196 8.0 14.5 0.00 0.00 0.00 68 1019.6
20260905182323 21 187 6.4 12.9 0.00 0.00 0.00 69 1019.6
20260905181822 21 164 6.4 9.7 0.00 0.00 0.00 69 1019.6
20260905180822 21 171 6.4 11.3 0.00 0.00 0.00 68 1019.5
20260905180322 21 157 4.8 11.3 0.00 0.00 0.00 68 1019.4
20260905175821 21 171 9.7 12.9 0.00 0.00 0.00 68 1019.4
20260905175321 21 177 6.4 11.3 0.00 0.00 0.00 68 1019.2
20260905174821 21 168 8.0 11.3 0.00 0.00 0.00 68 1019.1
20260905174320 21 181 6.4 11.3 0.00 0.00 0.00 67 1019.1
20260905173820 22 163 4.8 11.3 0.00 0.00 0.00 66 1019.1
20260905173320 22 168 3.2 8.0 0.00 0.00 0.00 65 1019.0
20260905172820 22 181 6.4 9.7 0.00 0.00 0.00 65 1019.0
20260905172319 22 184 4.8 11.3 0.00 0.00 0.00 64 1018.9
20260905171819 22 185 9.7 11.3 0.00 0.00 0.00 62 1018.8
20260905171319 22 181 8.0 11.3 0.00 0.00 0.00 61 1018.7
20260905170818 22 161 6.4 12.9 0.00 0.00 0.00 61 1018.7
20260905170318 22 157 6.4 12.9 0.00 0.00 0.00 61 1018.7
20260905165818 22 185 9.7 11.3 0.00 0.00 0.00 61 1018.6
20260905165318 23 144 6.4 11.3 0.00 0.00 0.00 61 1018.6
20260905164817 23 164 6.4 8.0 0.00 0.00 0.00 61 1018.6
20260905164317 23 164 3.2 11.3 0.00 0.00 0.00 60 1018.5
20260905163817 23 163 4.8 9.7 0.00 0.00 0.00 61 1018.4
20260905163316 23 149 6.4 9.7 0.00 0.00 0.00 60 1018.3
20260905162816 23 165 4.8 9.7 0.00 0.00 0.00 61 1018.2
20260905162316 23 158 3.2 8.0 0.00 0.00 0.00 60 1018.2
20260905161816 23 154 4.8 9.7 0.00 0.00 0.00 59 1018.1
20260905161315 23 172 4.8 12.9 0.00 0.00 0.00 59 1018.1
20260905160815 24 157 4.8 11.3 0.00 0.00 0.00 58 1018.1
20260905160315 24 178 3.2 8.0 0.00 0.00 0.00 58 1018.1
20260905155814 24 167 3.2 11.3 0.00 0.00 0.00 58 1018.1
20260905155314 24 171 8.0 8.0 0.00 0.00 0.00 58 1017.9
20260905154814 25 170 4.8 9.7 0.00 0.00 0.00 56 1017.9
20260905154313 25 146 4.8 8.0 0.00 0.00 0.00 53 1017.9
20260905153813 26 177 3.2 8.0 0.00 0.00 0.00 49 1017.8
20260905153313 27 358 0.0 0.0 0.00 0.00 0.00 49 1017.8
20260905152813 27 358 0.0 0.0 0.00 0.00 0.00 45 1017.8
20260905152313 27 358 0.0 0.0 0.00 0.00 0.00 46 1017.9
20260905151812 27 358 0.0 0.0 0.00 0.00 0.00 46 1017.9
20260905151312 27 14 0.0 0.0 0.00 0.00 0.00 45 1017.9
20260905150811 27 14 0.0 0.0 0.00 0.00 0.00 44 1017.8
20260905150311 28 101 0.0 0.0 0.00 0.00 0.00 45 1017.8
20260905145811 28 195 0.0 4.8 0.00 0.00 0.00 42 1017.8
20260905145311 28 12 0.0 0.0 0.00 0.00 0.00 44 1017.6
20260905144810 28 12 0.0 3.2 0.00 0.00 0.00 44 1017.6
20260905144310 28 306 1.6 3.2 0.00 0.00 0.00 43 1017.5
20260905143810 27 262 0.0 3.2 0.00 0.00 0.00 44 1017.5
20260905143309 27 239 1.6 4.8 0.00 0.00 0.00 44 1017.4
20260905142809 28 215 3.2 6.4 0.00 0.00 0.00 46 1017.4
20260905142309 28 223 0.0 1.6 0.00 0.00 0.00 44 1017.5
20260905141809 28 222 0.0 4.8 0.00 0.00 0.00 44 1017.5
20260905141308 28 233 3.2 4.8 0.00 0.00 0.00 44 1017.6
20260905140808 28 188 3.2 9.7 0.00 0.00 0.00 41 1017.5
20260905140308 28 151 0.0 3.2 0.00 0.00 0.00 41 1017.5
20260905135807 28 293 0.0 4.8 0.00 0.00 0.00 40 1017.6
20260905135307 28 11 1.6 4.8 0.00 0.00 0.00 41 1017.6
20260905134807 28 108 0.0 0.0 0.00 0.00 0.00 40 1017.6
20260905134306 28 174 0.0 3.2 0.00 0.00 0.00 40 1017.6
20260905133806 28 337 0.0 3.2 0.00 0.00 0.00 40 1017.7
20260905133306 28 192 3.2 4.8 0.00 0.00 0.00 40 1017.6
20260905132806 28 14 0.0 3.2 0.00 0.00 0.00 39 1017.6
20260905132306 28 14 0.0 4.8 0.00 0.00 0.00 38 1017.6
20260905131805 28 247 3.2 3.2 0.00 0.00 0.00 40 1017.6
20260905131305 28 178 0.0 3.2 0.00 0.00 0.00 41 1017.5
20260905130805 28 215 1.6 3.2 0.00 0.00 0.00 40 1017.5
20260905130304 28 194 0.0 3.2 0.00 0.00 0.00 40 1017.6
20260905125804 28 220 0.0 3.2 0.00 0.00 0.00 37 1017.5
20260905125306 28 140 0.0 4.8 0.00 0.00 0.00 38 1017.6
20260905124803 28 341 0.0 4.8 0.00 0.00 0.00 39 1017.6
20260905124303 28 189 4.8 4.8 0.00 0.00 0.00 41 1017.8
20260905123803 28 217 4.8 6.4 0.00 0.00 0.00 39 1017.8
20260905123302 28 202 3.2 6.4 0.00 0.00 0.00 42 1017.9
20260905122802 28 248 3.2 6.4 0.00 0.00 0.00 40 1017.9
20260905122302 28 4 0.0 3.2 0.00 0.00 0.00 39 1017.9
20260905121802 28 227 0.0 4.8 0.00 0.00 0.00 41 1017.9
20260905121301 27 344 0.0 6.4 0.00 0.00 0.00 40 1017.9
20260905120801 28 253 0.0 3.2 0.00 0.00 0.00 39 1018.1
20260905120301 27 222 1.6 1.6 0.00 0.00 0.00 42 1018.1
20260905115800 27 244 0.0 6.4 0.00 0.00 0.00 44 1018.1
20260905115300 27 219 6.4 6.4 0.00 0.00 0.00 44 1017.9
20260905114800 27 226 1.6 3.2 0.00 0.00 0.00 42 1017.9
20260905114300 26 59 0.0 3.2 0.00 0.00 0.00 43 1018.1
20260905113759 26 32 0.0 1.6 0.00 0.00 0.00 43 1018.1
20260905113259 26 35 1.6 1.6 0.00 0.00 0.00 42 1018.1
20260905112759 27 338 0.0 0.0 0.00 0.00 0.00 44 1018.1
20260905112258 26 338 0.0 0.0 0.00 0.00 0.00 45 1018.1
20260905111758 26 284 0.0 1.6 0.00 0.00 0.00 45 1018.1
20260905111258 26 19 1.6 3.2 0.00 0.00 0.00 45 1018.1
20260905110758 26 18 0.0 1.6 0.00 0.00 0.00 46 1018.1
20260905110257 26 2 0.0 3.2 0.00 0.00 0.00 45 1017.9
20260905105757 26 225 1.6 4.8 0.00 0.00 0.00 46 1017.9
20260905105257 26 223 3.2 8.0 0.00 0.00 0.00 45 1017.9
20260905104756 26 222 0.0 8.0 0.00 0.00 0.00 46 1018.1
20260905104256 26 232 6.4 6.4 0.00 0.00 0.00 47 1018.1
20260905103756 25 251 0.0 3.2 0.00 0.00 0.00 48 1018.2
20260905103256 25 236 0.0 1.6 0.00 0.00 0.00 49 1018.2
20260905102755 25 39 0.0 4.8 0.00 0.00 0.00 49 1018.2
20260905102255 24 213 0.0 4.8 0.00 0.00 0.00 50 1018.2
20260905101755 24 230 1.6 6.4 0.00 0.00 0.00 49 1018.2
20260905101254 24 230 3.2 8.0 0.00 0.00 0.00 52 1018.1
20260905100754 23 209 3.2 6.4 0.00 0.00 0.00 52 1018.1
20260905100254 23 220 1.6 4.8 0.00 0.00 0.00 53 1018.2
20260905095753 23 217 0.0 1.6 0.00 0.00 0.00 52 1018.3
20260905095253 23 264 0.0 1.6 0.00 0.00 0.00 52 1018.3
20260905094753 23 241 0.0 1.6 0.00 0.00 0.00 51 1018.3
20260905094253 23 355 1.6 1.6 0.00 0.00 0.00 50 1018.2
20260905093752 23 345 0.0 0.0 0.00 0.00 0.00 51 1018.1
20260905093252 23 0 0.0 0.0 0.00 0.00 0.00 52 1018.2
20260905092752 23 192 0.0 0.0 0.00 0.00 0.00 54 1018.2
20260905092251 23 192 0.0 3.2 0.00 0.00 0.00 57 1018.1
20260905091751 23 198 1.6 3.2 0.00 0.00 0.00 56 1017.9
20260905091251 23 220 0.0 0.0 0.00 0.00 0.00 58 1018.1
20260905090751 23 16 0.0 0.0 0.00 0.00 0.00 57 1018.1
20260905090250 23 202 0.0 0.0 0.00 0.00 0.00 57 1018.1
20260905085750 23 202 0.0 0.0 0.00 0.00 0.00 58 1018.1
20260905085250 23 202 0.0 0.0 0.00 0.00 0.00 59 1017.9
20260905084749 23 174 0.0 0.0 0.00 0.00 0.00 59 1017.9
20260905084249 23 216 0.0 0.0 0.00 0.00 0.00 61 1017.9
20260905083749 23 216 0.0 0.0 0.00 0.00 0.00 59 1017.9
20260905083249 23 216 0.0 0.0 0.00 0.00 0.00 60 1017.9
20260905082748 23 216 0.0 0.0 0.00 0.00 0.00 62 1017.8
20260905082248 23 216 0.0 0.0 0.00 0.00 0.00 61 1017.8
20260905081748 23 216 0.0 0.0 0.00 0.00 0.00 62 1017.8
20260905081247 23 216 0.0 3.2 0.00 0.00 0.00 62 1017.6
20260905080747 22 222 1.6 1.6 0.00 0.00 0.00 65 1017.5
20260905080247 22 220 0.0 1.6 0.00 0.00 0.00 67 1017.5
20260905075746 22 12 0.0 0.0 0.00 0.00 0.00 65 1017.4
20260905075246 22 12 0.0 0.0 0.00 0.00 0.00 65 1017.5
20260905074746 22 12 0.0 0.0 0.00 0.00 0.00 65 1017.4
20260905074246 22 12 0.0 0.0 0.00 0.00 0.00 67 1017.5
20260905073745 22 12 0.0 1.6 0.00 0.00 0.00 73 1017.5
20260905073245 22 223 1.6 1.6 0.00 0.00 0.00 76 1017.5
20260905072745 22 195 1.6 1.6 0.00 0.00 0.00 78 1017.4
20260905072244 22 254 0.0 0.0 0.00 0.00 0.00 72 1017.4
20260905071744 22 254 0.0 0.0 0.00 0.00 0.00 71 1017.3
20260905071244 22 254 0.0 0.0 0.00 0.00 0.00 72 1017.2
20260905070744 22 254 0.0 0.0 0.00 0.00 0.00 73 1017.2
20260905070243 21 254 0.0 0.0 0.00 0.00 0.00 75 1017.1
20260905065743 21 254 0.0 0.0 0.00 0.00 0.00 76 1017.1
20260905065243 21 254 0.0 0.0 0.00 0.00 0.00 77 1017.1
20260905064742 21 254 0.0 0.0 0.00 0.00 0.00 73 1017.1